Location: Taupo
(38.6830°S, 176.0830°E)
Time: 22:54:12
(UTC+13:00)

Resurs 01 Rocket - Pass Details

Date: 24 January 2019
Orbit: 635 x 644 km, 98.0° (Epoch: 15 October)

Event Time Altitude Azimuth Distance (km) Brightness Sun altitude
Rises 23:11:56 0° 181° (S) 2,975 5.9 -23.9°
Reaches altitude 10° 23:14:26 10° 193° (SSW) 2,056 5.1 -24.2°
Maximum altitude 23:18:07 26° 249° (WSW) 1,275 3.7 -24.6°
Drops below altitude 10° 23:21:47 10° 304° (NW) 2,031 4.2 -25.0°
Enters shadow 23:21:53 10° 305° (NW) 2,067 4.2 -25.0°
